Rifle, CO

12:30 AM MDT on September 26, 2016 (GMT -0600)
Garfield County Regional

Weather History for KRIL - January, 2013

Change the Weather History Date:

Monday, January 7, 2013

  Actual Average Record
Temperature  
Mean Temperature 15 °F 23 °F  
Max Temperature 32 °F 35 °F 50 °F (1954)
Min Temperature -2 °F 11 °F -33 °F (1913)
Degree Days  
Heating Degree Days 50 42  
Month to date heating degree days 381 294  
Since 1 July heating degree days 2896 3058  
Cooling Degree Days 0 0  
Month to date cooling degree days 0 0  
Year to date cooling degree days 0 0  
Moisture  
Dew Point 4 °F    
Average Humidity 65    
Maximum Humidity 87    
Minimum Humidity 43    
Precipitation  
Precipitation 0.00 in 0.03 in 0.30 in (1937)
Month to date precipitation T 0.22  
Year to date precipitation T 0.22  
Sea Level Pressure  
Sea Level Pressure 30.30 in    
Wind  
Wind Speed 2 mph (SSE)    
Max Wind Speed 8 mph    
Max Gust Speed 10 mph    
Visibility 10 miles    
Events      
T = Trace of Precipitation, MM = Missing Value Source: NWS Daily Summary

Daily Weather History Graph

Daily Weather History Graph

Search for Another Location

Airport or City:

Trip Planner

Search our weather history database for the weather conditions in past years. The results will help you decide how hot, cold, wet, or windy it might be!

Date:

Astronomy

Jan. 07, 2013 Rise Set
Actual Time 7:31 AM MST 5:03 PM MST
Civil Twilight 7:01 AM MST 5:33 PM MST
Nautical Twilight 6:28 AM MST 6:06 PM MST
Astronomical Twilight 5:55 AM MST 6:39 PM MST
Moon 2:59 AM MST (1/7) 1:16 PM MST (1/7)
Length of Visible Light 10h 31m
Length of Day
9h 32m
Waning Crescent, 22% of the Moon is Illuminated
Jan 7
Waning Crescent
Jan 11
New
Jan 18
First Quarter
Jan 26
Full
Feb 3
Last Quarter

Hourly Weather History & Observations

Time (MST) Temp. Windchill Dew Point Humidity Pressure Visibility Wind Dir Wind Speed Gust Speed Precip Events Conditions
12:53 AM 8.1 °F 1.4 °F 1.9 °F 76% 30.32 in 10.0 mi South 3.5 mph - N/A   Clear
1:53 AM 8.1 °F - 1.0 °F 73% 30.33 in 10.0 mi Calm Calm - N/A   Clear
2:53 AM 7.0 °F - 1.9 °F 80% 30.32 in 10.0 mi Calm Calm - N/A   Clear
3:53 AM 5.0 °F - -0.9 °F 76% 30.32 in 10.0 mi Calm Calm - N/A   Clear
5:53 AM 3.9 °F - -0.0 °F 84% 30.37 in 10.0 mi Calm Calm - N/A   Clear
6:53 AM 1.0 °F -6.7 °F -2.9 °F 83% 30.39 in 10.0 mi South 3.5 mph - N/A   Clear
7:53 AM 1.9 °F -7.6 °F -2.9 °F 80% 30.40 in 10.0 mi ESE 4.6 mph - N/A   Clear
8:53 AM 7.0 °F - -0.0 °F 73% 30.38 in 10.0 mi Calm Calm - N/A   Clear
9:53 AM 15.1 °F 9.4 °F 6.1 °F 68% 30.34 in 10.0 mi South 3.5 mph - N/A   Clear
10:53 AM 16.0 °F - 7.0 °F 68% 30.33 in 10.0 mi Calm Calm - N/A   Clear
12:53 PM 25.0 °F 19.3 °F 9.0 °F 51% 30.23 in 10.0 mi SSW 4.6 mph - N/A   Clear
1:53 PM 28.9 °F 25.2 °F 10.9 °F 47% 30.20 in 10.0 mi SE 3.5 mph - N/A   Clear
2:53 PM 30.9 °F - 10.0 °F 42% 30.17 in 10.0 mi Calm Calm - N/A   Clear
4:53 PM 23.0 °F 18.4 °F 10.0 °F 58% 30.23 in 10.0 mi SSE 3.5 mph - N/A   Clear
5:53 PM 19.0 °F 13.9 °F 7.0 °F 59% 30.25 in 10.0 mi South 3.5 mph - N/A   Clear
6:53 PM 15.1 °F - 3.9 °F 61% 30.29 in 10.0 mi Calm Calm - N/A   Clear
7:53 PM 12.0 °F 5.9 °F 3.0 °F 67% 30.32 in 10.0 mi East 3.5 mph - N/A   Clear
8:53 PM 12.0 °F 2.7 °F 3.9 °F 70% 30.29 in 10.0 mi SW 5.8 mph - N/A   Clear
9:53 PM 8.1 °F - 1.0 °F 73% 30.29 in 10.0 mi Calm Calm - N/A   Clear
10:53 PM 8.1 °F 1.4 °F 1.9 °F 76% 30.30 in 10.0 mi ESE 3.5 mph - N/A   Clear
11:53 PM 8.1 °F - 1.9 °F 76% 30.28 in 10.0 mi Calm Calm - N/A   Clear